OneWeb SL0348

operational
NORAD ID: 49213 Int'l Des: 2021-083 Owner: ONEWEBN Country: UK Constellation: oneweb
LEOCIRCULARPOLARONEWEB_TYPE

Über OneWeb SL0348

Beschreibung wird geladen...

Live-Position

3D-Globus wird geladen...

Nächste Überflüge

Höhenverlauf

Altitude vs Time

uPlot chart will show altitude changes over time

Zweizeiliger Elementsatz

1 49213U 21083AD 25259.17757480 -.00000030 00000-0 -10539-3 0 9991
2 49213 87.9266 329.0755 0002536 101.5808 258.5610 13.20771930200641
Epoch: 16. Sept. 2025 • Age: 7 hours

Aktueller Status

Höhe 1189.0 km
Geschwindigkeit 7.26 km/s
Subsatellitenpunkt -15.92°S, 160.94°E
Startdatum 14. Sept. 2021
Alter 4 years
Typ internet

Technische Details

Klassifizierung Payload
Masse 148.00 kg
Trockenmasse 140.00 kg
Gesamtmasse 148.00 kg
Länge 1.30 m
Durchmesser 1.00 m
Spannweite 5.00 m
Form Trapezoid+2 pan
Hersteller ONEWUS
Bus-Typ ARROW
Phasenstatus In Orbit
Besitzer/Staat ONEWEBN/UK

Große Konstellationen

Loading constellations...